OH5GWF-1 Weather Reports


Display with metric or nautical units.
time (UTC)temp
F
wind
direction
speed
MPH
gust
MPH
rain 1hr
in
rain 24hr
in
rain mn
in
humidity
%
barometer
mb
20260504120250 50 252 0.0 1.0 0.06 0.08 0.08 87 1001.7
20260504110659 51 248 0.0 0.0 0.04 0.04 0.04 83 1002.1
20260504100352 59 248 0.0 1.0 0.00 0.00 0.00 65 1002.6
20260504081856 59 257 0.0 3.0 0.00 0.00 0.00 65 1003.3
20260504081153 60 282 0.0 1.0 0.00 0.00 0.00 64 1003.3
20260504080450 61 248 1.0 1.0 0.00 0.00 0.00 62 1003.2
20260504070154 58 330 1.0 1.0 0.00 0.00 0.00 72 1004.0
20260504050257 50 248 0.0 1.0 0.00 0.00 0.00 85 1005.0
20260504045554 49 248 0.0 0.0 0.00 0.00 0.00 85 1005.2
20260504044853 49 248 0.0 0.0 0.00 0.00 0.00 85 1005.3
20260504044152 49 248 0.0 0.0 0.00 0.00 0.00 86 1005.4
20260504043449 48 248 0.0 1.0 0.00 0.00 0.00 86 1005.4
20260504042759 48 248 0.0 0.0 0.00 0.00 0.00 86 1005.5
20260504042055 47 248 0.0 0.0 0.00 0.00 0.00 87 1005.5
20260504041353 47 248 0.0 0.0 0.00 0.00 0.00 87 1005.6
20260504040651 46 248 0.0 0.0 0.00 0.00 0.00 87 1005.6
20260504040000 46 248 1.0 1.0 0.00 0.00 0.00 88 1005.8
20260504035258 45 248 1.0 1.0 0.00 0.00 0.00 88 1005.8
20260504034554 45 248 0.0 2.0 0.00 0.00 0.00 87 1005.8
20260504033852 45 248 0.0 1.0 0.00 0.00 0.00 88 1005.8
20260504033150 44 248 1.0 2.0 0.00 0.00 0.00 88 1005.8
20260504032458 44 248 0.0 1.0 0.00 0.00 0.00 88 1005.9
20260504031756 44 248 0.0 0.0 0.00 0.00 0.00 88 1005.8
20260504031054 44 248 0.0 0.0 0.00 0.00 0.00 88 1005.8
20260504030352 44 248 2.0 2.0 0.00 0.00 0.00 87 1005.9
20260504025651 44 248 0.0 0.0 0.00 0.00 0.00 87 1006.0
20260504025000 44 248 0.0 0.0 0.00 0.00 0.00 87 1006.0
20260504024259 44 248 0.0 0.0 0.00 0.00 0.00 87 1006.2
20260504023557 44 248 0.0 0.0 0.00 0.00 0.00 87 1006.2
20260504022856 44 248 0.0 0.0 0.00 0.00 0.00 87 1006.2
20260504022153 44 248 0.0 0.0 0.00 0.00 0.00 87 1006.2
20260504021451 44 248 0.0 0.0 0.00 0.00 0.00 87 1006.2
20260504020748 44 248 0.0 0.0 0.00 0.00 0.00 87 1006.3
20260504020058 44 248 0.0 0.0 0.00 0.00 0.00 87 1006.5
20260504015357 44 248 1.0 2.0 0.00 0.00 0.00 87 1006.6
20260504014655 44 248 0.0 1.0 0.00 0.00 0.00 87 1006.6
20260504013952 44 248 0.0 0.0 0.00 0.00 0.00 87 1006.6
20260504013251 44 248 0.0 0.0 0.00 0.00 0.00 87 1006.6
20260504012550 44 248 0.0 0.0 0.00 0.00 0.00 87 1006.7
20260504011849 44 248 0.0 0.0 0.00 0.00 0.00 87 1006.7
20260504011200 45 248 0.0 0.0 0.00 0.00 0.00 86 1006.6
20260504010458 45 248 0.0 0.0 0.00 0.00 0.00 85 1006.6
20260504005756 45 248 0.0 0.0 0.00 0.00 0.00 85 1006.6
20260504005054 45 248 0.0 0.0 0.00 0.00 0.00 84 1006.6
20260504004353 45 248 0.0 0.0 0.00 0.00 0.00 84 1006.6
20260504003651 46 248 0.0 0.0 0.00 0.00 0.00 82 1006.7
20260504003000 46 248 0.0 0.0 0.00 0.00 0.00 82 1006.7
20260504002258 46 248 0.0 0.0 0.00 0.00 0.00 80 1006.8
20260504001557 46 248 0.0 0.0 0.00 0.00 0.00 80 1006.8
20260504000853 46 248 0.0 0.0 0.00 0.00 0.00 80 1006.7
20260504000151 46 248 0.0 0.0 0.00 0.00 0.00 79 1006.8
20260503235451 46 248 0.0 1.0 0.00 0.00 0.00 79 1006.8
20260503234749 46 248 0.0 0.0 0.00 0.00 0.00 78 1006.7
20260503234059 47 248 0.0 0.0 0.00 0.00 0.00 78 1006.7
20260503233358 46 248 0.0 2.0 0.00 0.00 0.00 78 1006.7
20260503232656 46 248 0.0 0.0 0.00 0.00 0.00 79 1006.8
20260503231955 46 248 0.0 0.0 0.00 0.00 0.00 79 1006.9
20260503231252 46 248 0.0 0.0 0.00 0.00 0.00 78 1007.0
20260503230551 46 248 0.0 0.0 0.00 0.00 0.00 78 1007.1
20260503225850 46 248 0.0 0.0 0.00 0.00 0.00 78 1007.1
20260503225149 45 248 0.0 0.0 0.00 0.00 0.00 78 1007.1
20260503224500 46 248 0.0 0.0 0.00 0.00 0.00 78 1007.2
20260503223757 46 248 0.0 0.0 0.00 0.00 0.00 77 1007.3
20260503223054 46 248 0.0 0.0 0.00 0.00 0.00 77 1007.3
20260503222352 46 248 0.0 0.0 0.00 0.00 0.00 77 1007.3
20260503221650 46 248 0.0 0.0 0.00 0.00 0.00 77 1007.3
20260503221000 46 248 0.0 0.0 0.00 0.00 0.00 77 1007.3
20260503220257 46 248 0.0 0.0 0.00 0.00 0.00 77 1007.3
20260503215555 46 248 0.0 0.0 0.00 0.00 0.00 78 1007.4
20260503214852 46 248 0.0 0.0 0.00 0.00 0.00 78 1007.4
20260503214151 46 248 0.0 0.0 0.00 0.00 0.00 77 1007.4
20260503213449 46 248 0.0 0.0 0.00 0.00 0.00 77 1007.3
20260503212758 46 248 0.0 0.0 0.00 0.00 0.00 77 1007.4
20260503212055 46 248 0.0 0.0 0.00 0.00 0.00 77 1007.6
20260503211353 46 248 0.0 0.0 0.00 0.00 0.00 77 1007.6
20260503210651 46 248 0.0 0.0 0.00 0.00 0.00 77 1007.6
20260503205949 46 248 0.0 0.0 0.00 0.00 0.00 77 1007.7
20260503205258 46 248 0.0 0.0 0.00 0.00 0.00 77 1007.7
20260503204557 46 248 0.0 0.0 0.00 0.00 0.00 77 1007.8
20260503203854 46 248 0.0 0.0 0.00 0.00 0.00 77 1007.8
20260503203153 46 248 0.0 0.0 0.00 0.00 0.00 77 1007.8
20260503202452 46 248 0.0 0.0 0.00 0.00 0.00 78 1007.8
20260503201749 46 248 0.0 0.0 0.00 0.00 0.00 78 1007.8
20260503201059 46 248 0.0 0.0 0.00 0.00 0.00 78 1007.7
20260503200357 46 248 0.0 0.0 0.00 0.00 0.00 78 1007.8
20260503195654 46 248 0.0 0.0 0.00 0.00 0.00 77 1007.8
20260503194951 46 248 0.0 0.0 0.00 0.00 0.00 77 1007.8
20260503194249 46 248 0.0 0.0 0.00 0.00 0.00 76 1007.7
20260503193559 46 248 0.0 0.0 0.00 0.00 0.00 75 1007.7
20260503192857 46 248 0.0 0.0 0.00 0.00 0.00 76 1007.8
20260503192154 46 248 0.0 0.0 0.00 0.00 0.00 76 1007.8
20260503191451 47 248 0.0 0.0 0.00 0.00 0.00 75 1007.6
20260503190748 47 248 0.0 0.0 0.00 0.00 0.00 75 1007.6
20260503190058 47 248 0.0 0.0 0.00 0.00 0.00 74 1007.6
20260503185357 47 248 0.0 0.0 0.00 0.00 0.00 74 1007.6
20260503184655 47 248 0.0 0.0 0.00 0.00 0.00 74 1007.6
20260503183952 47 248 0.0 0.0 0.00 0.00 0.00 73 1007.5
20260503183249 47 248 0.0 0.0 0.00 0.00 0.00 71 1007.7
20260503182559 48 248 0.0 0.0 0.00 0.00 0.00 71 1007.8
20260503182451 48 248 0.0 0.0 0.00 0.00 0.00 71 1007.8
20260503181857 49 248 0.0 0.0 0.00 0.00 0.00 70 1007.6
20260503181344 49 248 0.0 0.0 0.00 0.00 0.00 69 1007.4
20260503181154 49 248 0.0 0.0 0.00 0.00 0.00 68 1007.4
20260503180453 50 248 0.0 0.0 0.00 0.00 0.00 68 1007.5
20260503180253 50 248 0.0 0.0 0.00 0.00 0.00 67 1007.4
20260503175750 51 248 0.0 0.0 0.00 0.00 0.00 66 1007.3
20260503175150 51 248 0.0 0.0 0.00 0.00 0.00 66 1007.3
20260503175048 51 248 0.0 1.0 0.00 0.00 0.00 66 1007.3
20260503174359 52 248 0.0 0.0 0.00 0.00 0.00 65 1007.3
20260503174048 53 248 0.0 0.0 0.00 0.00 0.00 65 1007.3
20260503173656 53 248 0.0 0.0 0.00 0.00 0.00 64 1007.3
20260503172945 53 248 1.0 2.0 0.00 0.00 0.00 65 1007.2
20260503172252 53 248 1.0 2.0 0.00 0.00 0.00 64 1007.2
20260503171853 53 248 0.0 1.0 0.00 0.00 0.00 64 1007.3
20260503171550 53 248 1.0 1.0 0.00 0.00 0.00 64 1007.3
20260503170900 53 248 0.0 0.0 0.00 0.00 0.00 64 1007.4
20260503170749 53 248 0.0 0.0 0.00 0.00 0.00 64 1007.4
20260503170158 53 248 0.0 0.0 0.00 0.00 0.00 64 1007.4
20260503160149 55 248 0.0 2.0 0.00 0.00 0.00 59 1007.4
20260503150953 57 248 1.0 2.0 0.00 0.00 0.00 57 1007.6
20260503150654 57 356 1.0 3.0 0.00 0.00 0.00 57 1007.5
20260503150252 58 241 2.0 3.0 0.00 0.00 0.00 56 1007.5
20260503131059 63 335 2.0 7.0 0.00 0.00 0.00 51 1007.6
20260503130546 64 322 1.0 3.0 0.00 0.00 0.00 50 1007.6
20260503130356 64 244 2.0 3.0 0.00 0.00 0.00 49 1007.6